Location: Asheville, NC
(35.6000°N, 82.5500°W)
Time: 10:17:19

FO-29 - Pass Details

Date: 11 March 2018
Orbit: 800 x 1321 km, 98.5° (Epoch: 18 March)

Event Time Altitude Azimuth Distance (km) Brightness Sun altitude
Rises 20:22:06 0° 23° (NNE) 4,021 12.5 -10.5°
Reaches altitude 10° 20:24:54 10° 32° (NNE) 3,125 11.9 -11.1°
Maximum altitude 20:31:29 36° 97° (E) 1,898 10.5 -12.4°
Drops below altitude 10° 20:38:27 10° 161° (SSE) 3,322 12.0 -13.8°
Sets 20:41:29 0° 169° (S) 4,304 12.7 -14.4°
